Location: Newark
(49.4900°N, 20.6656°E)
Time: 05:58:08
(UTC+00:00)

STARLINK-1738 - Pass Details

Date: 24 September 2020
Orbit: 378 x 381 km, 53.0° (Epoch: 23 October)

Event Time Altitude Azimuth Distance (km) Brightness Sun altitude
Exits shadow 01:49:01 24° 52° (NE) 823 5.2 -25.2°
Drops below altitude 10° 01:50:34 10° 68° (ENE) 1,388 6.7 -25.0°
Enters shadow 02:46:05 -70° 273° (W) 12,369 10.4 -16.9°
Maximum altitude 03:23:40 55° 15° (NNE) 457 3.4 -11.1°
